Location: Chimay
(50.0486°N, 4.3171°E)
Time: 16:07:29
(UTC+00:00)

FALCON 9 DEB - Pass Details

Date: 08 August 2020
Orbit: 427 x 441 km, 53.0° (Epoch: 25 September)

Event Time Altitude Azimuth Distance (km) Brightness Sun altitude
Rises 21:06:24 0° 226° (SW) 2,422 6.9 -15.1°
Reaches altitude 10° 21:08:34 10° 220° (SW) 1,556 5.8 -15.4°
Maximum altitude 21:11:54 43° 147° (SSE) 635 3.4 -15.7°
Enters shadow 21:13:51 21° 86° (E) 1,043 4.7 -15.9°
